Regional Weather Roundup
Issued by NWS Bismarck, ND

Home | Current Version | Previous Version | Text Only | Print | Product List | Glossary On
Versions: 1 2 3 4 5 6 7 8 9 10 11 12 13 14 15 16 17 18 19 20 21 22 23 24 25 26 27 28 29 30 31 32 33 34 35 36 37 38 39 40 41 42 43 44 45 46 47 48 49 50
000
ASUS43 KBIS 220610
RWRBIS

NWR BROADCAST TEXT
NATIONAL WEATHER SERVICE BISMARCK ND
100 AM CDT FRI SEP 22 2017

NOTE: "FAIR" INDICATES FEW OR NO CLOUDS BELOW 12,000 FEET WITH NO
SIGNIFICANT WEATHER AND/OR OBSTRUCTIONS TO VISIBILITY.


CITY           SKY/WX    TMP DP  RH WIND       PRES   REMARKS
WILLISTON      MOCLDY    50  38  63 N10       29.93R
MINOT          CLEAR     50  39  66 NW12      29.89R
MINOT AFB      CLEAR     47  39  73 NW9       29.88R
BISMARCK       PTCLDY    58  48  69 N10       29.81S
DICKINSON      CLOUDY    50  37  61 N14       29.84F
GARRISON         N/A     50  40  68 N13       29.87R
HETTINGER ARPT CLOUDY    51  36  56 N16       29.81F
JAMESTOWN      CLEAR     59  53  80 N8        29.75R
CARRINGTON     FAIR      55  52  88 N8        29.80S
HAZEN          FAIR      54  41  62 CALM      29.88S
LINTON         FAIR      59  46  63 N12       29.77F
RUGBY          FAIR      48  48 100 W7        29.85R
STANLEY        FAIR      48  37  66 N9        29.94R
TIOGA          FAIR      48  37  66 N9        29.93F
WATFORD CITY   FAIR      45  41  87 NW5       29.90S
$$

CITY           SKY/WX    TMP DP  RH WIND       PRES   REMARKS
GRAND FORKS    CLEAR     62  59  90 NW7       29.73R
GRAND FORKS AF CLEAR     59  56  91 N5        29.74R
DEVILS LAKE    CLEAR     56  52  86 N13       29.79F
FARGO          CLEAR     72  69  90 SE8       29.71S
CANDO          FAIR      54  54 100 N13       29.81F
CAVALIER       FAIR      59  52  77 N14       29.78R
GRAFTON        MOCLDY    61  54  77 N12       29.78R
GWINNER        FOG       61  61 100 CALM      29.71F VSB 0
LANGDON        FAIR      54  54 100 N9        29.82R
ROLLA          FAIR      50  52 100 N12       29.83F
WALHALLA       FAIR     N/A N/A N/A NW13      29.80S
$$

CITY           SKY/WX    TMP DP  RH WIND       PRES   REMARKS
ABERDEEN       CLEAR     66  65  96 E5        29.66F
MOBRIDGE       CLEAR     64  52  64 N12       29.69F
BUFFALO          N/A     53  36  52 N21       29.75F
GLASGOW        CLOUDY    48  33  56 NE14      29.95R
SIDNEY         PTCLDY    48  39  71 N7        29.91
WOLF POINT     CLOUDY    52  33  48 N17       29.94R
GLENDIVE       LGT RAIN  49  39  68 NE6       29.91R
MILES CITY     MOCLDY    50  36  58 N16       29.88F
BAKER          CLOUDY    51  34  52 N10       29.87F
$$

CITY           SKY/WX    TMP DP  RH WIND       PRES   REMARKS
BILLINGS       LGT RAIN  40  39  97 N9        29.94F
GREAT FALLS    CLOUDY    42  30  62 N16       30.00R
REGINA         CLOUDY    36  30  80 VRB2      29.95R
ESTEVAN        MOCLDY    45  39  81 NW7       29.94R
$$





USA.gov is the U.S. government's official web portal to all federal, state and local government web resources and services.